TimeEDT,TemperatureF,Dew PointF,Humidity,Sea Level PressureIn,VisibilityMPH,Wind Direction,Wind SpeedMPH,Gust SpeedMPH,PrecipitationIn,Events,Conditions,WindDirDegrees,DateUTC
12:30 AM,37.4,33.8,87,30.30,10.0,West,6.9,-,N/A,,Overcast,260,2013-04-26 04:30:00
12:38 AM,35.6,33.8,93,30.29,10.0,West,4.6,-,N/A,,Mostly Cloudy,260,2013-04-26 04:38:00
12:56 AM,36.0,33.1,89,30.34,10.0,West,6.9,-,N/A,,Partly Cloudy,270,2013-04-26 04:56:00
1:56 AM,35.1,30.9,85,30.35,10.0,West,6.9,-,N/A,,Partly Cloudy,260,2013-04-26 05:56:00
2:56 AM,34.0,30.9,89,30.35,10.0,West,6.9,-,N/A,,Clear,280,2013-04-26 06:56:00
3:56 AM,33.1,30.0,89,30.37,10.0,West,5.8,-,N/A,,Clear,270,2013-04-26 07:56:00
4:56 AM,32.0,30.0,92,30.39,10.0,West,4.6,-,N/A,,Clear,270,2013-04-26 08:56:00
5:56 AM,30.9,28.9,92,30.41,10.0,West,5.8,-,N/A,,Clear,270,2013-04-26 09:56:00
7:56 AM,36.0,30.9,82,30.46,10.0,WNW,3.5,-,N/A,,Clear,290,2013-04-26 11:56:00
8:56 AM,39.9,28.9,65,30.47,10.0,Variable,4.6,-,N/A,,Clear,0,2013-04-26 12:56:00
9:56 AM,41.0,24.1,51,30.48,10.0,NW,9.2,18.4,N/A,,Clear,310,2013-04-26 13:56:00
10:56 AM,44.1,24.1,45,30.49,10.0,WNW,8.1,-,N/A,,Clear,290,2013-04-26 14:56:00
11:56 AM,46.0,19.9,35,30.48,10.0,Variable,3.5,-,N/A,,Partly Cloudy,0,2013-04-26 15:56:00
12:56 PM,48.0,18.0,30,30.48,10.0,West,9.2,17.3,N/A,,Clear,270,2013-04-26 16:56:00
1:56 PM,50.0,16.0,26,30.47,10.0,NW,10.4,18.4,N/A,,Clear,320,2013-04-26 17:56:00
2:56 PM,51.1,17.1,26,30.46,10.0,Variable,3.5,16.1,N/A,,Clear,0,2013-04-26 18:56:00
3:56 PM,52.0,18.0,26,30.45,10.0,NNW,8.1,-,N/A,,Clear,340,2013-04-26 19:56:00
4:56 PM,52.0,16.0,24,30.44,10.0,ENE,5.8,-,N/A,,Clear,60,2013-04-26 20:56:00
5:56 PM,52.0,19.0,27,30.43,10.0,Calm,Calm,-,N/A,,Clear,0,2013-04-26 21:56:00
6:56 PM,51.1,17.1,26,30.43,10.0,North,5.8,-,N/A,,Clear,10,2013-04-26 22:56:00
7:56 PM,48.0,17.1,29,30.44,10.0,North,3.5,-,N/A,,Clear,350,2013-04-26 23:56:00
8:56 PM,46.9,18.0,32,30.45,10.0,North,3.5,-,N/A,,Clear,350,2013-04-27 00:56:00
9:56 PM,44.1,19.9,38,30.46,10.0,NNE,5.8,-,N/A,,Clear,30,2013-04-27 01:56:00
10:56 PM,43.0,21.0,42,30.46,10.0,Calm,Calm,-,N/A,,Clear,0,2013-04-27 02:56:00
11:56 PM,39.9,21.9,49,30.46,10.0,Calm,Calm,-,N/A,,Clear,0,2013-04-27 03:56:00